Location: Jetmore Oil Field
(38.1181°N, 99.9337°W)
Time: 04:46:46
(UTC+00:00)

Cosmos 2100 Rocket - Pass Details

Date: 17 February 2020
Orbit: 955 x 1002 km, 82.9° (Epoch: 30 March)

Event Time Altitude Azimuth Distance (km) Brightness Sun altitude
Rises 00:55:46 0° 185° (S) 3,710 7.2 -7.9°
Reaches altitude 10° 00:58:17 10° 185° (S) 2,764 6.6 -8.4°
Maximum altitude 01:04:39 90° 252° (WSW) 1,005 4.1 -9.6°
Drops below altitude 10° 01:11:02 10° 7° (N) 2,765 6.2 -10.9°
Sets 01:13:33 0° 7° (N) 3,712 6.9 -11.4°
